Location: �quirre
(50.4736°N, 2.2351°E)
Time: 05:21:25
(UTC+00:00)

Cosmos 2219 - Pass Details

Date: 07 August 2020
Orbit: 834 x 860 km, 71.1° (Epoch: 19 September)

Event Time Altitude Azimuth Distance (km) Brightness Sun altitude
Exits shadow 02:27:27 22° 238° (WSW) 1,758 4.3 -15.5°
Maximum altitude 02:30:57 52° 306° (NW) 1,038 3.6 -15.1°
Drops below altitude 10° 02:36:26 10° 23° (NNE) 2,456 6.9 -14.6°
Sets 02:38:58 0° 28° (NNE) 3,395 8.1 -14.3°
